Year,Month,Day,Hour,Minute,Value (Times are PST for temperature in C)
2013,12,13,00,00,1.50
2013,12,13,00,01,1.50
2013,12,13,00,02,1.40
2013,12,13,00,03,1.40
2013,12,13,00,04,1.40
2013,12,13,00,05,1.40
2013,12,13,00,06,1.40
2013,12,13,00,07,1.40
2013,12,13,00,08,1.40
2013,12,13,00,09,1.40
2013,12,13,00,10,1.40
2013,12,13,00,11,1.40
2013,12,13,00,12,1.40
2013,12,13,00,13,1.40
2013,12,13,00,14,1.40
2013,12,13,00,15,1.40
2013,12,13,00,16,1.50
2013,12,13,00,17,1.50
2013,12,13,00,18,1.50
2013,12,13,00,19,1.50
2013,12,13,00,20,1.50
2013,12,13,00,21,1.50
2013,12,13,00,22,1.50
2013,12,13,00,23,1.50
2013,12,13,00,24,1.50
2013,12,13,00,25,1.50
2013,12,13,00,26,1.50
2013,12,13,00,27,1.50
2013,12,13,00,28,1.50
2013,12,13,00,29,1.50
2013,12,13,00,30,1.50
2013,12,13,00,31,1.50
2013,12,13,00,32,1.50
2013,12,13,00,33,1.50
2013,12,13,00,34,1.50
2013,12,13,00,35,1.50
2013,12,13,00,36,1.50
2013,12,13,00,37,1.50
2013,12,13,00,38,1.50
2013,12,13,00,39,1.50
2013,12,13,00,40,1.50
2013,12,13,00,41,1.50
2013,12,13,00,42,1.50
2013,12,13,00,43,1.50
2013,12,13,00,44,1.50
2013,12,13,00,45,1.50
2013,12,13,00,46,1.50
2013,12,13,00,47,1.50
2013,12,13,00,48,1.50
2013,12,13,00,49,1.50
2013,12,13,00,50,1.50
2013,12,13,00,51,1.50
2013,12,13,00,52,1.50
2013,12,13,00,53,1.50
2013,12,13,00,54,1.50
2013,12,13,00,55,1.50
2013,12,13,00,56,1.50
2013,12,13,00,57,1.50
2013,12,13,00,58,1.50
2013,12,13,00,59,1.50
2013,12,13,01,00,1.40
2013,12,13,01,01,1.40
2013,12,13,01,02,1.40
2013,12,13,01,03,1.50
2013,12,13,01,04,1.40
2013,12,13,01,05,1.50
2013,12,13,01,06,1.40
2013,12,13,01,07,1.50
2013,12,13,01,08,1.50
2013,12,13,01,09,1.50
2013,12,13,01,10,1.50
2013,12,13,01,11,1.40
2013,12,13,01,12,1.50
2013,12,13,01,13,1.40
2013,12,13,01,14,1.40
2013,12,13,01,15,1.50
2013,12,13,01,16,1.50
2013,12,13,01,17,1.50
2013,12,13,01,18,1.50
2013,12,13,01,19,1.50
2013,12,13,01,20,1.50
2013,12,13,01,21,1.50
2013,12,13,01,22,1.50
2013,12,13,01,23,1.50
2013,12,13,01,24,1.50
2013,12,13,01,25,1.50
2013,12,13,01,26,1.50
2013,12,13,01,27,1.50
2013,12,13,01,28,1.50
2013,12,13,01,29,1.50
2013,12,13,01,30,1.50
2013,12,13,01,31,1.50
2013,12,13,01,32,1.50
2013,12,13,01,33,1.50
2013,12,13,01,34,1.50
2013,12,13,01,35,1.60
2013,12,13,01,36,1.60
2013,12,13,01,37,1.60
2013,12,13,01,38,1.60
2013,12,13,01,39,1.60
2013,12,13,01,40,1.60
2013,12,13,01,41,1.60
2013,12,13,01,42,1.60
2013,12,13,01,43,1.60
2013,12,13,01,44,1.60
2013,12,13,01,45,1.60
2013,12,13,01,46,1.60
2013,12,13,01,47,1.60
2013,12,13,01,48,1.60
2013,12,13,01,49,1.60
2013,12,13,01,50,1.60
2013,12,13,01,51,1.50
2013,12,13,01,52,1.50
2013,12,13,01,53,1.50
2013,12,13,01,54,1.50
2013,12,13,01,55,1.50
2013,12,13,01,56,1.50
2013,12,13,01,57,1.50
2013,12,13,01,58,1.50
2013,12,13,01,59,1.50
2013,12,13,02,00,1.50
2013,12,13,02,01,1.50
2013,12,13,02,02,1.50
2013,12,13,02,03,1.50
2013,12,13,02,04,1.50
2013,12,13,02,05,1.50
2013,12,13,02,06,1.50
2013,12,13,02,07,1.50
2013,12,13,02,08,1.50
2013,12,13,02,09,1.50
2013,12,13,02,10,1.50
2013,12,13,02,11,1.50
2013,12,13,02,12,1.50
2013,12,13,02,13,1.50
2013,12,13,02,14,1.50
2013,12,13,02,15,1.50
2013,12,13,02,16,1.50
2013,12,13,02,17,1.50
2013,12,13,02,18,1.50
2013,12,13,02,19,1.60
2013,12,13,02,20,1.60
2013,12,13,02,21,1.60
2013,12,13,02,22,1.60
2013,12,13,02,23,1.60
2013,12,13,02,24,1.60
2013,12,13,02,25,1.60
2013,12,13,02,26,1.60
2013,12,13,02,27,1.60
2013,12,13,02,28,1.60
2013,12,13,02,29,1.60
2013,12,13,02,30,1.60
2013,12,13,02,31,1.60
2013,12,13,02,32,1.60
2013,12,13,02,33,1.60
2013,12,13,02,34,1.60
2013,12,13,02,35,1.60
2013,12,13,02,36,1.60
2013,12,13,02,37,1.60
2013,12,13,02,38,1.60
2013,12,13,02,39,1.60
2013,12,13,02,40,1.60
2013,12,13,02,41,1.60
2013,12,13,02,42,1.60
2013,12,13,02,43,1.60
2013,12,13,02,44,1.70
2013,12,13,02,45,1.70
2013,12,13,02,46,1.70
2013,12,13,02,47,1.70
2013,12,13,02,48,1.70
2013,12,13,02,49,1.70
2013,12,13,02,50,1.70
2013,12,13,02,51,1.70
2013,12,13,02,52,1.70
2013,12,13,02,53,1.70
2013,12,13,02,54,1.70
2013,12,13,02,55,1.70
2013,12,13,02,56,1.70
2013,12,13,02,57,1.70
2013,12,13,02,58,1.70
2013,12,13,02,59,1.70
2013,12,13,03,00,1.70
2013,12,13,03,01,1.70
2013,12,13,03,02,1.70
2013,12,13,03,03,1.70
2013,12,13,03,04,1.70
2013,12,13,03,05,1.70
2013,12,13,03,06,1.70
2013,12,13,03,07,1.70
2013,12,13,03,08,1.70
2013,12,13,03,09,1.80
2013,12,13,03,10,1.80
2013,12,13,03,11,1.80
2013,12,13,03,12,1.80
2013,12,13,03,13,1.80
2013,12,13,03,14,1.80
2013,12,13,03,15,1.80
2013,12,13,03,16,1.80
2013,12,13,03,17,1.80
2013,12,13,03,18,1.80
2013,12,13,03,19,1.80
2013,12,13,03,20,1.90
2013,12,13,03,21,1.90
2013,12,13,03,22,1.90
2013,12,13,03,23,1.90
2013,12,13,03,24,1.90
2013,12,13,03,25,1.90
2013,12,13,03,26,1.90
2013,12,13,03,27,1.90
2013,12,13,03,28,1.80
2013,12,13,03,29,1.80
2013,12,13,03,30,1.80
2013,12,13,03,31,1.80
2013,12,13,03,32,1.80
2013,12,13,03,33,1.80
2013,12,13,03,34,1.80
2013,12,13,03,35,1.80
2013,12,13,03,36,1.70
2013,12,13,03,37,1.70
2013,12,13,03,38,1.70
2013,12,13,03,39,1.70
2013,12,13,03,40,1.70
2013,12,13,03,41,1.70
2013,12,13,03,42,1.70
2013,12,13,03,43,1.70
2013,12,13,03,44,1.70
2013,12,13,03,45,1.70
2013,12,13,03,46,1.70
2013,12,13,03,47,1.70
2013,12,13,03,48,1.70
2013,12,13,03,49,1.70
2013,12,13,03,50,1.70
2013,12,13,03,51,1.70
2013,12,13,03,52,1.70
2013,12,13,03,53,1.70
2013,12,13,03,54,1.70
2013,12,13,03,55,1.70
2013,12,13,03,56,1.70
2013,12,13,03,57,1.70
2013,12,13,03,58,1.70
2013,12,13,03,59,1.70
2013,12,13,04,00,1.70
2013,12,13,04,01,1.70
2013,12,13,04,02,1.70
2013,12,13,04,03,1.70
2013,12,13,04,04,1.70
2013,12,13,04,05,1.70
2013,12,13,04,06,1.70
2013,12,13,04,07,1.70
2013,12,13,04,08,1.70
2013,12,13,04,09,1.70
2013,12,13,04,10,1.80
2013,12,13,04,11,1.70
2013,12,13,04,12,1.70
2013,12,13,04,13,1.70
2013,12,13,04,14,1.70
2013,12,13,04,15,1.70
2013,12,13,04,16,1.70
2013,12,13,04,17,1.70
2013,12,13,04,18,1.70
2013,12,13,04,19,1.70
2013,12,13,04,20,1.70
2013,12,13,04,21,1.70
2013,12,13,04,22,1.70
2013,12,13,04,23,1.70
2013,12,13,04,24,1.70
2013,12,13,04,25,1.70
2013,12,13,04,26,1.70
2013,12,13,04,27,1.80
2013,12,13,04,28,1.80
2013,12,13,04,29,1.80
2013,12,13,04,30,1.80
2013,12,13,04,31,1.80
2013,12,13,04,32,1.80
2013,12,13,04,33,1.80
2013,12,13,04,34,1.80
2013,12,13,04,35,1.80
2013,12,13,04,36,1.80
2013,12,13,04,37,1.80
2013,12,13,04,38,1.80
2013,12,13,04,39,1.80
2013,12,13,04,40,1.80
2013,12,13,04,41,1.80
2013,12,13,04,42,1.80
2013,12,13,04,43,1.80
2013,12,13,04,44,1.80
2013,12,13,04,45,1.80
2013,12,13,04,46,1.80
2013,12,13,04,47,1.80
2013,12,13,04,48,1.80
2013,12,13,04,49,1.80
2013,12,13,04,50,1.80
2013,12,13,04,51,1.80
2013,12,13,04,52,1.80
2013,12,13,04,53,1.80
2013,12,13,04,54,1.80
2013,12,13,04,55,1.80
2013,12,13,04,56,1.80
2013,12,13,04,57,1.80
2013,12,13,04,58,1.80
2013,12,13,04,59,1.80
2013,12,13,05,00,1.80
2013,12,13,05,01,1.80
2013,12,13,05,02,1.80
2013,12,13,05,03,1.80
2013,12,13,05,04,1.80
2013,12,13,05,05,1.80
2013,12,13,05,06,1.80
2013,12,13,05,07,1.80
2013,12,13,05,08,1.80
2013,12,13,05,09,1.80
2013,12,13,05,10,1.80
2013,12,13,05,11,1.80
2013,12,13,05,12,1.80
2013,12,13,05,13,1.80
2013,12,13,05,14,1.80
2013,12,13,05,15,1.80
2013,12,13,05,16,1.80
2013,12,13,05,17,1.80
2013,12,13,05,18,1.80
2013,12,13,05,19,1.80
2013,12,13,05,20,1.80
2013,12,13,05,21,1.80
2013,12,13,05,22,1.80
2013,12,13,05,23,1.80
2013,12,13,05,24,1.80
2013,12,13,09,20,2.60
2013,12,13,09,21,2.70
2013,12,13,09,22,2.70
2013,12,13,09,23,2.70
2013,12,13,09,24,2.70
2013,12,13,09,25,2.70
2013,12,13,09,26,2.80
2013,12,13,09,27,2.80
2013,12,13,09,28,2.80
2013,12,13,09,29,2.80
2013,12,13,09,30,2.80
2013,12,13,09,31,2.90
2013,12,13,09,32,2.90
2013,12,13,09,33,2.90
2013,12,13,09,34,2.90
2013,12,13,09,35,2.90
2013,12,13,09,36,3.00
2013,12,13,09,37,2.90
2013,12,13,09,38,3.00
2013,12,13,09,39,3.00
2013,12,13,09,40,3.00
2013,12,13,09,41,3.00
2013,12,13,09,42,3.10
2013,12,13,09,43,3.10
2013,12,13,09,44,3.10
2013,12,13,09,45,3.10
2013,12,13,09,46,3.10
2013,12,13,09,47,3.20
2013,12,13,09,48,3.20
2013,12,13,09,49,3.20
2013,12,13,09,50,3.20
2013,12,13,09,51,3.20
2013,12,13,09,52,3.20
2013,12,13,09,53,3.20
2013,12,13,09,54,3.20
2013,12,13,09,55,3.20
2013,12,13,09,56,3.30
2013,12,13,09,57,3.30
2013,12,13,09,58,3.30
2013,12,13,09,59,3.30
2013,12,13,10,00,3.40
2013,12,13,10,01,3.40
2013,12,13,10,02,3.40
2013,12,13,10,03,3.50
2013,12,13,10,04,3.50
2013,12,13,10,05,3.50
2013,12,13,10,06,3.60
2013,12,13,10,07,3.60
2013,12,13,10,08,3.60
2013,12,13,10,09,3.60
2013,12,13,10,10,3.70
2013,12,13,10,11,3.70
2013,12,13,10,12,3.70
2013,12,13,10,13,3.70
2013,12,13,10,14,3.70
2013,12,13,10,15,3.80
2013,12,13,10,16,3.80
2013,12,13,10,17,3.80
2013,12,13,10,18,3.80
2013,12,13,10,19,3.90
2013,12,13,10,20,3.90
2013,12,13,10,21,3.90
2013,12,13,10,22,3.90
2013,12,13,10,23,4.00
2013,12,13,10,24,4.00
2013,12,13,10,25,4.00
2013,12,13,10,26,4.10
2013,12,13,10,27,4.10
2013,12,13,10,28,4.10
2013,12,13,10,29,4.10
2013,12,13,10,30,4.10
2013,12,13,10,31,4.10
2013,12,13,10,32,4.10
2013,12,13,10,33,4.10
2013,12,13,10,34,4.10
2013,12,13,10,35,4.10
2013,12,13,10,36,4.10
2013,12,13,10,37,4.10
2013,12,13,10,38,4.10
2013,12,13,10,39,4.10
2013,12,13,10,40,4.10
2013,12,13,10,41,4.10
2013,12,13,10,42,4.10
2013,12,13,10,43,4.10
2013,12,13,10,44,4.10
2013,12,13,10,45,4.10
2013,12,13,10,46,4.20
2013,12,13,10,47,4.20
2013,12,13,10,48,4.20
2013,12,13,10,49,4.20
2013,12,13,10,50,4.20
2013,12,13,10,51,4.30
2013,12,13,10,52,4.30
2013,12,13,10,53,4.30
2013,12,13,10,54,4.30
2013,12,13,10,55,4.30
2013,12,13,10,56,4.30
2013,12,13,10,57,4.40
2013,12,13,10,58,4.40
2013,12,13,10,59,4.40
2013,12,13,11,00,4.40
2013,12,13,11,01,4.40
2013,12,13,11,02,4.40
2013,12,13,11,03,4.50
2013,12,13,11,04,4.50
2013,12,13,11,05,4.50
2013,12,13,11,06,4.60
2013,12,13,11,07,4.60
2013,12,13,11,08,4.60
2013,12,13,11,09,4.70
2013,12,13,11,10,4.70
2013,12,13,11,11,4.70
2013,12,13,11,12,4.70
2013,12,13,11,13,4.70
2013,12,13,11,14,4.70
2013,12,13,11,15,4.70
2013,12,13,11,16,4.70
2013,12,13,11,17,4.80
2013,12,13,11,18,4.80
2013,12,13,11,19,4.80
2013,12,13,11,20,4.80
2013,12,13,11,21,4.80
2013,12,13,11,22,4.80
2013,12,13,11,23,4.80
2013,12,13,11,24,4.80
2013,12,13,11,25,4.80
2013,12,13,11,26,4.80
2013,12,13,11,27,4.80
2013,12,13,11,28,4.80
2013,12,13,11,29,4.80
2013,12,13,11,30,4.80
2013,12,13,11,31,4.80
2013,12,13,11,32,4.80
2013,12,13,11,33,4.80
2013,12,13,11,34,4.90
2013,12,13,11,35,4.90
2013,12,13,11,36,4.90
2013,12,13,11,37,4.90
2013,12,13,11,38,5.00
2013,12,13,11,39,5.00
2013,12,13,11,40,5.00
2013,12,13,11,41,5.00
2013,12,13,11,42,5.00
2013,12,13,11,43,5.00
2013,12,13,11,44,5.00
2013,12,13,11,45,5.00
2013,12,13,11,46,5.00
2013,12,13,11,47,5.00
2013,12,13,11,48,5.00
2013,12,13,11,49,5.00
2013,12,13,11,50,5.10
2013,12,13,11,51,5.10
2013,12,13,11,52,5.10
2013,12,13,11,53,5.10
2013,12,13,11,54,5.10
2013,12,13,11,55,5.10
2013,12,13,11,56,5.10
2013,12,13,11,57,5.10
2013,12,13,11,58,5.10
2013,12,13,11,59,5.10
2013,12,13,12,00,5.10
2013,12,13,12,01,5.10
2013,12,13,12,02,5.10
2013,12,13,12,03,5.10
2013,12,13,12,04,5.20
2013,12,13,12,05,5.20
2013,12,13,12,06,5.20
2013,12,13,12,07,5.20
2013,12,13,12,08,5.30
2013,12,13,12,09,5.30
2013,12,13,12,10,5.30
2013,12,13,12,11,5.30
2013,12,13,12,12,5.30
2013,12,13,12,13,5.40
2013,12,13,12,14,5.40
2013,12,13,12,15,5.40
2013,12,13,12,16,5.40
2013,12,13,12,17,5.40
2013,12,13,12,18,5.40
2013,12,13,12,19,5.40
2013,12,13,12,20,5.40
2013,12,13,12,21,5.40
2013,12,13,12,22,5.40
2013,12,13,12,23,5.40
2013,12,13,12,24,5.40
2013,12,13,12,25,5.40
2013,12,13,12,26,5.40
2013,12,13,12,27,5.40
2013,12,13,12,28,5.40
2013,12,13,12,29,5.40
2013,12,13,12,30,5.40
2013,12,13,12,31,5.40
2013,12,13,12,32,5.40
2013,12,13,12,33,5.40
2013,12,13,12,34,5.40
2013,12,13,12,35,5.40
2013,12,13,12,36,5.40
2013,12,13,12,37,5.40
2013,12,13,12,38,5.40
2013,12,13,12,39,5.40
2013,12,13,12,40,5.40
2013,12,13,12,41,5.40
2013,12,13,12,42,5.40
2013,12,13,12,43,5.40
2013,12,13,12,44,5.50
2013,12,13,12,45,5.50
2013,12,13,12,46,5.50
2013,12,13,12,47,5.50
2013,12,13,12,48,5.60
2013,12,13,12,49,5.60
2013,12,13,12,50,5.60
2013,12,13,12,51,5.60
2013,12,13,12,52,5.60
2013,12,13,12,53,5.60
2013,12,13,12,54,5.60
2013,12,13,12,55,5.60
2013,12,13,12,56,5.60
2013,12,13,12,57,5.60
2013,12,13,12,58,5.60
2013,12,13,12,59,5.60
2013,12,13,13,00,5.60
2013,12,13,13,01,5.60
2013,12,13,13,02,5.60
2013,12,13,13,03,5.60
2013,12,13,13,04,5.60
2013,12,13,13,05,5.60
2013,12,13,13,06,5.60
2013,12,13,13,07,5.60
2013,12,13,13,08,5.60
2013,12,13,13,09,5.70
2013,12,13,13,10,5.70
2013,12,13,13,11,5.70
2013,12,13,13,12,5.70
2013,12,13,13,13,5.70
2013,12,13,13,14,5.70
2013,12,13,13,15,5.60
2013,12,13,13,16,5.60
2013,12,13,13,17,5.60
2013,12,13,13,18,5.60
2013,12,13,13,19,5.60
2013,12,13,13,20,5.60
2013,12,13,13,21,5.60
2013,12,13,13,22,5.60
2013,12,13,13,23,5.60
2013,12,13,13,24,5.60
2013,12,13,13,25,5.60
2013,12,13,13,26,5.60
2013,12,13,13,27,5.60
2013,12,13,13,28,5.60
2013,12,13,13,29,5.60
2013,12,13,13,30,5.60
2013,12,13,13,31,5.60
2013,12,13,13,32,5.70
2013,12,13,13,33,5.60
2013,12,13,13,34,5.60
2013,12,13,13,35,5.60
2013,12,13,13,36,5.60
2013,12,13,13,37,5.60
2013,12,13,13,38,5.60
2013,12,13,13,39,5.60
2013,12,13,13,40,5.60
2013,12,13,13,41,5.60
2013,12,13,13,42,5.60
2013,12,13,13,43,5.60
2013,12,13,13,44,5.60
2013,12,13,13,45,5.60
2013,12,13,13,46,5.60
2013,12,13,13,47,5.60
2013,12,13,13,48,5.60
2013,12,13,13,49,5.60
2013,12,13,13,50,5.60
2013,12,13,13,51,5.60
2013,12,13,13,52,5.60
2013,12,13,13,53,5.60
2013,12,13,13,54,5.60
2013,12,13,13,55,5.60
2013,12,13,13,56,5.50
2013,12,13,13,57,5.50
2013,12,13,13,58,5.50
2013,12,13,13,59,5.50
2013,12,13,14,00,5.50
2013,12,13,14,01,5.50
2013,12,13,14,02,5.50
2013,12,13,14,03,5.40
2013,12,13,14,04,5.40
2013,12,13,14,05,5.40
2013,12,13,14,06,5.40
2013,12,13,14,07,5.40
2013,12,13,14,08,5.40
2013,12,13,14,09,5.40
2013,12,13,14,10,5.40
2013,12,13,14,11,5.40
2013,12,13,14,12,5.40
2013,12,13,14,13,5.40
2013,12,13,14,14,5.40
2013,12,13,14,15,5.40
2013,12,13,14,16,5.50
2013,12,13,14,17,5.50
2013,12,13,14,18,5.50
2013,12,13,14,19,5.50
2013,12,13,14,20,5.50
2013,12,13,14,21,5.50
2013,12,13,14,22,5.50
2013,12,13,14,23,5.60
2013,12,13,14,24,5.60
2013,12,13,14,25,5.60
2013,12,13,14,26,5.60
2013,12,13,14,27,5.60
2013,12,13,14,28,5.60
2013,12,13,14,29,5.60
2013,12,13,14,30,5.60
2013,12,13,14,31,5.60
2013,12,13,14,32,5.60
2013,12,13,14,33,5.60
2013,12,13,14,34,5.60
2013,12,13,14,35,5.60
2013,12,13,14,36,5.60
2013,12,13,14,37,5.60
2013,12,13,14,38,5.60
2013,12,13,14,39,5.60
2013,12,13,14,40,5.60
2013,12,13,14,41,5.60
2013,12,13,14,42,5.60
2013,12,13,14,43,5.60
2013,12,13,14,44,5.50
2013,12,13,14,45,5.50
2013,12,13,14,46,5.50
2013,12,13,14,47,5.50
2013,12,13,14,48,5.50
2013,12,13,14,49,5.50
2013,12,13,14,50,5.50
2013,12,13,14,51,5.50
2013,12,13,14,52,5.60
2013,12,13,14,53,5.60
2013,12,13,14,54,5.60
2013,12,13,14,55,5.60
2013,12,13,14,56,5.60
2013,12,13,14,57,5.60
2013,12,13,14,58,5.60
2013,12,13,14,59,5.60
2013,12,13,15,00,5.60
2013,12,13,15,01,5.60
2013,12,13,15,02,5.60
2013,12,13,15,03,5.70
2013,12,13,15,04,5.70
2013,12,13,15,05,5.70
2013,12,13,15,06,5.70
2013,12,13,15,07,5.70
2013,12,13,15,08,5.60
2013,12,13,15,09,5.60
2013,12,13,15,10,5.60
2013,12,13,15,11,5.60
2013,12,13,15,12,5.60
2013,12,13,15,13,5.60
2013,12,13,15,14,5.60
2013,12,13,15,15,5.50
2013,12,13,15,16,5.50
2013,12,13,15,17,5.50
2013,12,13,15,18,5.40
2013,12,13,15,19,5.40
2013,12,13,15,20,5.40
2013,12,13,15,21,5.40
2013,12,13,15,22,5.40
2013,12,13,15,23,5.40
2013,12,13,15,24,5.40
2013,12,13,15,25,5.30
2013,12,13,15,26,5.30
2013,12,13,15,27,5.30
2013,12,13,15,28,5.30
2013,12,13,15,29,5.30
2013,12,13,15,30,5.30
2013,12,13,15,31,5.30
2013,12,13,15,32,5.30
2013,12,13,15,33,5.20
2013,12,13,15,34,5.20
2013,12,13,15,35,5.10
2013,12,13,15,36,5.10
2013,12,13,15,37,5.10
2013,12,13,15,38,5.10
2013,12,13,15,39,5.10
2013,12,13,15,40,5.00
2013,12,13,15,41,5.00
2013,12,13,15,42,5.00
2013,12,13,15,43,5.00
2013,12,13,15,44,5.00
2013,12,13,15,45,5.00
2013,12,13,15,46,5.00
2013,12,13,15,47,5.00
2013,12,13,15,48,5.10
2013,12,13,15,49,5.10
2013,12,13,15,50,5.10
2013,12,13,15,51,5.00
2013,12,13,15,52,5.00
2013,12,13,15,53,5.00
2013,12,13,15,54,5.00
2013,12,13,15,55,5.00
2013,12,13,15,56,5.00
2013,12,13,15,57,5.00
2013,12,13,15,58,4.90
2013,12,13,15,59,4.90
2013,12,13,16,00,4.80
2013,12,13,16,01,4.80
2013,12,13,16,02,4.80
2013,12,13,16,03,4.70
2013,12,13,16,04,4.70
2013,12,13,16,05,4.70
2013,12,13,16,06,4.70
2013,12,13,16,07,4.60
2013,12,13,16,08,4.60
2013,12,13,16,09,4.60
2013,12,13,16,10,4.60
2013,12,13,16,11,4.60
2013,12,13,16,12,4.60
2013,12,13,16,13,4.50
2013,12,13,16,14,4.50
2013,12,13,16,15,4.50
2013,12,13,16,16,4.50
2013,12,13,16,17,4.50
2013,12,13,16,18,4.50
2013,12,13,16,19,4.50
2013,12,13,16,20,4.50
2013,12,13,16,21,4.50
2013,12,13,16,22,4.50
2013,12,13,16,23,4.50
2013,12,13,16,24,4.50
2013,12,13,16,25,4.50
2013,12,13,16,26,4.40
2013,12,13,16,27,4.40
2013,12,13,16,28,4.40
2013,12,13,16,29,4.50
2013,12,13,16,30,4.50
2013,12,13,16,31,4.50
2013,12,13,16,32,4.50
2013,12,13,16,33,4.50
2013,12,13,16,34,4.60
2013,12,13,16,35,4.60
2013,12,13,16,36,4.60
2013,12,13,16,37,4.60
2013,12,13,16,38,4.60
2013,12,13,16,39,4.70
2013,12,13,16,40,4.70
2013,12,13,16,41,4.70
2013,12,13,16,42,4.70
2013,12,13,16,43,4.70
2013,12,13,16,44,4.70
2013,12,13,16,45,4.70
2013,12,13,16,46,4.70
2013,12,13,16,47,4.70
2013,12,13,16,48,4.60
2013,12,13,16,49,4.60
2013,12,13,16,50,4.60
2013,12,13,16,51,4.60
2013,12,13,16,52,4.60
2013,12,13,16,53,4.60
2013,12,13,16,54,4.60
2013,12,13,16,55,4.50
2013,12,13,16,56,4.50
2013,12,13,16,57,4.50
2013,12,13,16,58,4.40
2013,12,13,16,59,4.40
2013,12,13,17,00,4.40
2013,12,13,17,01,4.40
2013,12,13,17,02,4.40
2013,12,13,17,03,4.30
2013,12,13,17,04,4.30
2013,12,13,17,05,4.30
2013,12,13,17,06,4.30
2013,12,13,17,07,4.30
2013,12,13,17,08,4.30
2013,12,13,17,09,4.30
2013,12,13,17,10,4.30
2013,12,13,17,11,4.30
2013,12,13,17,12,4.30
2013,12,13,17,13,4.20
2013,12,13,17,14,4.20
2013,12,13,17,15,4.20
2013,12,13,17,16,4.20
2013,12,13,17,17,4.20
2013,12,13,17,18,4.20
2013,12,13,17,19,4.20
2013,12,13,17,20,4.20
2013,12,13,17,21,4.20
2013,12,13,17,22,4.20
2013,12,13,17,23,4.20
2013,12,13,17,24,4.20
2013,12,13,17,25,4.20
2013,12,13,17,26,4.20
2013,12,13,17,27,4.20
2013,12,13,17,28,4.30
2013,12,13,17,29,4.30
2013,12,13,17,30,4.30
2013,12,13,17,31,4.30
2013,12,13,17,32,4.30
2013,12,13,17,33,4.30
2013,12,13,17,34,4.20
2013,12,13,17,35,4.20
2013,12,13,17,36,4.20
2013,12,13,17,37,4.20
2013,12,13,17,38,4.20
2013,12,13,17,39,4.20
2013,12,13,17,40,4.20
2013,12,13,17,41,4.20
2013,12,13,17,42,4.20
2013,12,13,17,43,4.20
2013,12,13,17,44,4.10
2013,12,13,17,45,4.10
2013,12,13,17,46,4.10
2013,12,13,17,47,4.10
2013,12,13,17,48,4.10
2013,12,13,17,49,4.10
2013,12,13,17,50,4.00
2013,12,13,17,51,4.00
2013,12,13,17,52,3.90
2013,12,13,17,53,3.90
2013,12,13,17,54,3.90
2013,12,13,17,55,3.90
2013,12,13,17,56,3.90
2013,12,13,17,57,3.90
2013,12,13,17,58,3.80
2013,12,13,17,59,3.80
2013,12,13,18,00,3.80
2013,12,13,18,01,3.80
2013,12,13,18,02,3.80
2013,12,13,18,03,3.80
2013,12,13,18,04,3.80
2013,12,13,18,05,3.80
2013,12,13,18,06,3.90
2013,12,13,18,07,3.90
2013,12,13,18,08,3.80
2013,12,13,18,09,3.80
2013,12,13,18,10,3.80
2013,12,13,18,11,3.80
2013,12,13,18,12,3.80
2013,12,13,18,13,3.80
2013,12,13,18,14,3.80
2013,12,13,18,15,3.80
2013,12,13,18,16,3.80
2013,12,13,18,17,3.80
2013,12,13,18,18,3.80
2013,12,13,18,19,3.80
2013,12,13,18,20,3.80
2013,12,13,18,21,3.80
2013,12,13,18,22,3.70
2013,12,13,18,23,3.70
2013,12,13,18,24,3.70
2013,12,13,18,25,3.70
2013,12,13,18,26,3.70
2013,12,13,18,27,3.70
2013,12,13,18,28,3.80
2013,12,13,18,29,3.80
2013,12,13,18,30,3.80
2013,12,13,18,31,3.80
2013,12,13,18,32,3.70
2013,12,13,18,33,3.70
2013,12,13,18,34,3.70
2013,12,13,18,35,3.70
2013,12,13,18,36,3.70
2013,12,13,18,37,3.70
2013,12,13,18,38,3.70
2013,12,13,18,39,3.70
2013,12,13,18,40,3.70
2013,12,13,18,41,3.70
2013,12,13,18,42,3.70
2013,12,13,18,43,3.70
2013,12,13,18,44,3.70
2013,12,13,18,45,3.70
2013,12,13,18,46,3.70
2013,12,13,18,47,3.70
2013,12,13,18,48,3.70
2013,12,13,18,49,3.70
2013,12,13,18,50,3.70
2013,12,13,18,51,3.70
2013,12,13,18,52,3.70
2013,12,13,18,53,3.70
2013,12,13,18,54,3.70
2013,12,13,18,55,3.70
2013,12,13,18,56,3.70
2013,12,13,18,57,3.70
2013,12,13,18,58,3.60
2013,12,13,18,59,3.60
2013,12,13,19,00,3.60
2013,12,13,19,01,3.60
2013,12,13,19,02,3.60
2013,12,13,19,03,3.60
2013,12,13,19,04,3.60
2013,12,13,19,05,3.60
2013,12,13,19,06,3.60
2013,12,13,19,07,3.60
2013,12,13,19,08,3.60
2013,12,13,19,09,3.60
2013,12,13,19,10,3.60
2013,12,13,19,11,3.60
2013,12,13,19,12,3.60
2013,12,13,19,13,3.60
2013,12,13,19,14,3.60
2013,12,13,19,15,3.60
2013,12,13,19,16,3.60
2013,12,13,19,17,3.60
2013,12,13,19,18,3.60
2013,12,13,19,19,3.60
2013,12,13,19,20,3.60
2013,12,13,19,21,3.60
2013,12,13,19,22,3.60
2013,12,13,19,23,3.70
2013,12,13,19,24,3.70
2013,12,13,19,25,3.70
2013,12,13,19,26,3.70
2013,12,13,19,27,3.60
2013,12,13,19,28,3.60
2013,12,13,19,29,3.60
2013,12,13,19,30,3.60
2013,12,13,19,31,3.60
2013,12,13,19,32,3.60
2013,12,13,19,33,3.60
2013,12,13,19,34,3.60
2013,12,13,19,35,3.60
2013,12,13,19,36,3.60
2013,12,13,19,37,3.60
2013,12,13,19,38,3.50
2013,12,13,19,39,3.50
2013,12,13,19,40,3.50
2013,12,13,19,41,3.50
2013,12,13,19,42,3.50
2013,12,13,19,43,3.50
2013,12,13,19,44,3.40
2013,12,13,19,45,3.40
2013,12,13,19,46,3.50
2013,12,13,19,47,3.50
2013,12,13,19,48,3.50
2013,12,13,19,49,3.50
2013,12,13,19,50,3.60
2013,12,13,19,51,3.60
2013,12,13,19,52,3.60
2013,12,13,19,53,3.60
2013,12,13,19,54,3.60
2013,12,13,19,55,3.60
2013,12,13,19,56,3.60
2013,12,13,19,57,3.60
2013,12,13,19,58,3.60
2013,12,13,19,59,3.60
2013,12,13,20,00,3.60
2013,12,13,20,01,3.60
2013,12,13,20,02,3.60
2013,12,13,20,03,3.50
2013,12,13,20,04,3.50
2013,12,13,20,05,3.50
2013,12,13,20,06,3.40
2013,12,13,20,07,3.40
2013,12,13,20,08,3.40
2013,12,13,20,09,3.40
2013,12,13,20,10,3.40
2013,12,13,20,11,3.40
2013,12,13,20,12,3.40
2013,12,13,20,13,3.40
2013,12,13,20,14,3.40
2013,12,13,20,15,3.30
2013,12,13,20,16,3.40
2013,12,13,20,17,3.40
2013,12,13,20,18,3.50
2013,12,13,20,19,3.50
2013,12,13,20,20,3.60
2013,12,13,20,21,3.60
2013,12,13,20,22,3.70
2013,12,13,20,23,3.70
2013,12,13,20,24,3.70
2013,12,13,20,25,3.70
2013,12,13,20,26,3.70
2013,12,13,20,27,3.70
2013,12,13,20,28,3.70
2013,12,13,20,29,3.70
2013,12,13,20,30,3.70
2013,12,13,20,31,3.60
2013,12,13,20,32,3.60
2013,12,13,20,33,3.60
2013,12,13,20,34,3.60
2013,12,13,20,35,3.60
2013,12,13,20,36,3.60
2013,12,13,20,37,3.60
2013,12,13,20,38,3.60
2013,12,13,20,39,3.60
2013,12,13,20,40,3.60
2013,12,13,20,41,3.60
2013,12,13,20,42,3.60
2013,12,13,20,43,3.70
2013,12,13,20,44,3.60
2013,12,13,20,45,3.60
2013,12,13,20,46,3.60
2013,12,13,20,47,3.60
2013,12,13,20,48,3.60
2013,12,13,20,49,3.60
2013,12,13,20,50,3.50
2013,12,13,20,51,3.50
2013,12,13,20,52,3.50
2013,12,13,20,53,3.40
2013,12,13,20,54,3.40
2013,12,13,20,55,3.40
2013,12,13,20,56,3.40
2013,12,13,20,57,3.40
2013,12,13,20,58,3.40
2013,12,13,20,59,3.40
2013,12,13,21,00,3.40
2013,12,13,21,01,3.40
2013,12,13,21,02,3.40
2013,12,13,21,03,3.40
2013,12,13,21,04,3.40
2013,12,13,21,05,3.30
2013,12,13,21,06,3.30
2013,12,13,21,07,3.30
2013,12,13,21,08,3.30
2013,12,13,21,09,3.30
2013,12,13,21,10,3.30
2013,12,13,21,11,3.30
2013,12,13,21,12,3.30
2013,12,13,21,13,3.30
2013,12,13,21,14,3.30
2013,12,13,21,15,3.30
2013,12,13,21,16,3.40
2013,12,13,21,17,3.40
2013,12,13,21,18,3.40
2013,12,13,21,19,3.40
2013,12,13,21,20,3.40
2013,12,13,21,21,3.40
2013,12,13,21,22,3.40
2013,12,13,21,23,3.50
2013,12,13,21,24,3.50
2013,12,13,21,25,3.50
2013,12,13,21,26,3.50
2013,12,13,21,27,3.50
2013,12,13,21,28,3.50
2013,12,13,21,29,3.50
2013,12,13,21,30,3.40
2013,12,13,21,31,3.40
2013,12,13,21,32,3.40
2013,12,13,21,33,3.40
2013,12,13,21,34,3.40
2013,12,13,21,35,3.40
2013,12,13,21,36,3.40
2013,12,13,21,37,3.30
2013,12,13,21,38,3.30
2013,12,13,21,39,3.30
2013,12,13,21,40,3.30
2013,12,13,21,41,3.30
2013,12,13,21,42,3.30
2013,12,13,21,43,3.30
2013,12,13,21,44,3.30
2013,12,13,21,45,3.30
2013,12,13,21,46,3.30
2013,12,13,21,47,3.30
2013,12,13,21,48,3.30
2013,12,13,21,49,3.30
2013,12,13,21,50,3.30
2013,12,13,21,51,3.30
2013,12,13,21,52,3.30
2013,12,13,21,53,3.30
2013,12,13,21,54,3.30
2013,12,13,21,55,3.30
2013,12,13,21,56,3.30
2013,12,13,21,57,3.30
2013,12,13,21,58,3.30
2013,12,13,21,59,3.30
2013,12,13,22,00,3.30
2013,12,13,22,01,3.30